GW2248 Weather Reports


Display with metric or nautical units.
time (UTC)temp
F
wind
direction
speed
MPH
gust
MPH
rain 1hr
in
rain 24hr
in
rain mn
in
humidity
%
barometer
mb
20260505153221 67 65 1.0 2.0 0.00 0.00 0.00 64 1011.0
20260505152718 67 257 3.0 5.0 0.00 0.00 0.00 65 1011.1
20260505152214 68 257 2.0 3.0 0.00 0.00 0.00 64 1011.4
20260505151709 68 275 4.0 5.0 0.00 0.00 0.00 63 1011.4
20260505151207 67 289 3.0 3.0 0.00 0.00 0.00 64 1011.3
20260505150703 68 189 3.0 3.0 0.00 0.00 0.00 64 1011.3
20260505150201 69 98 6.0 7.0 0.00 0.00 0.00 64 1011.3
20260505140633 66 235 4.0 5.0 0.00 0.00 0.00 68 1011.7
20260505140131 67 94 3.0 5.0 0.00 0.00 0.00 66 1011.7
20260505124544 68 94 0.0 0.0 0.00 0.00 0.00 65 1010.8
20260505124040 68 89 1.0 2.0 0.00 0.00 0.00 65 1011.0
20260505123537 66 121 0.0 2.0 0.00 0.00 0.00 66 1010.9
20260505123033 66 280 2.0 3.0 0.00 0.00 0.00 67 1011.0
20260505122530 65 13 2.0 2.0 0.00 0.00 0.00 68 1010.9
20260505122027 64 206 2.0 3.0 0.00 0.00 0.00 71 1011.1
20260505121523 64 112 0.0 2.0 0.00 0.00 0.00 72 1011.0
20260505121020 63 169 1.0 2.0 0.00 0.00 0.00 74 1010.9
20260505120516 63 112 1.0 2.0 0.00 0.00 0.00 75 1011.0
20260505120012 63 100 2.0 2.0 0.00 0.00 0.00 74 1011.0
20260505115507 62 148 3.0 5.0 0.00 0.00 0.00 74 1010.9
20260505115005 62 78 0.0 0.0 0.00 0.00 0.00 76 1011.1
20260505114502 61 88 0.0 0.0 0.00 0.00 0.00 77 1011.1
20260505113958 61 172 2.0 2.0 0.00 0.00 0.00 77 1011.3
20260505113454 61 258 2.0 3.0 0.00 0.00 0.00 77 1010.9
20260505112949 62 117 0.0 0.0 0.00 0.00 0.00 77 1010.9
20260505112442 61 104 0.0 0.0 0.00 0.00 0.00 77 1011.1
20260505111938 60 90 0.0 0.0 0.00 0.00 0.00 79 1010.9
20260505111432 59 105 0.0 0.0 0.00 0.00 0.00 81 1011.0
20260505110929 59 104 0.0 0.0 0.00 0.00 0.00 81 1011.1
20260505110426 59 132 0.0 0.0 0.00 0.00 0.00 80 1011.0
20260505101857 54 94 0.0 0.0 0.00 0.00 0.00 92 1011.1
20260505101352 54 119 0.0 0.0 0.00 0.00 0.00 92 1010.8
20260505100848 53 88 0.0 0.0 0.00 0.00 0.00 92 1010.5
20260505100344 53 240 1.0 2.0 0.00 0.00 0.00 92 1010.6
20260505095840 53 135 1.0 2.0 0.00 0.00 0.00 92 1010.6
20260505095338 53 257 0.0 0.0 0.00 0.00 0.00 92 1010.3
20260505094833 53 131 0.0 0.0 0.00 0.00 0.00 92 1010.3
20260505094331 53 92 0.0 0.0 0.00 0.00 0.00 92 1010.2
20260505093826 53 115 1.0 2.0 0.00 0.00 0.00 92 1010.2
20260505093324 53 214 2.0 2.0 0.00 0.00 0.00 92 1010.1
20260505092821 53 246 1.0 3.0 0.00 0.00 0.00 92 1010.3
20260505092319 53 101 0.0 0.0 0.00 0.00 0.00 92 1010.2
20260505091816 53 77 2.0 2.0 0.00 0.00 0.00 92 1010.2
20260505091314 53 179 0.0 2.0 0.00 0.00 0.00 92 1010.2
20260505090812 53 91 0.0 0.0 0.00 0.00 0.00 92 1010.1
20260505090310 53 126 0.0 2.0 0.00 0.00 0.00 92 1010.2
20260505085807 53 126 0.0 0.0 0.00 0.00 0.00 92 1010.3
20260505085305 53 103 0.0 0.0 0.00 0.00 0.00 92 1010.1
20260505084802 53 133 0.0 0.0 0.00 0.00 0.00 92 1010.1
20260505084301 53 110 0.0 0.0 0.00 0.00 0.00 92 1010.3
20260505083757 53 147 0.0 0.0 0.00 0.00 0.00 92 1010.2
20260505083254 53 74 0.0 2.0 0.00 0.00 0.00 92 1010.0
20260505082750 53 93 0.0 0.0 0.00 0.00 0.00 92 1010.1
20260505082248 53 120 0.0 0.0 0.00 0.00 0.00 92 1010.0
20260505081743 53 95 2.0 2.0 0.00 0.00 0.00 92 1010.2
20260505081241 53 173 0.0 2.0 0.00 0.00 0.00 92 1010.0
20260505080738 53 103 0.0 2.0 0.00 0.00 0.00 92 1010.3
20260505080233 53 83 0.0 0.0 0.00 0.00 0.00 92 1010.3
20260505075729 53 84 1.0 2.0 0.00 0.00 0.00 92 1010.1
20260505075226 53 102 0.0 0.0 0.00 0.00 0.00 92 1010.1
20260505074724 53 154 1.0 2.0 0.00 0.00 0.00 92 1010.0
20260505074221 53 83 0.0 0.0 0.00 0.00 0.00 92 1010.2
20260505073718 53 25 0.0 2.0 0.00 0.00 0.00 92 1010.3
20260505073216 53 223 1.0 2.0 0.00 0.00 0.00 92 1010.3
20260505072712 53 288 2.0 2.0 0.00 0.00 0.00 92 1010.1
20260505072208 53 117 1.0 2.0 0.00 0.00 0.00 92 1010.1
20260505071704 53 119 0.0 2.0 0.00 0.00 0.00 92 1010.1
20260505071202 53 197 2.0 2.0 0.00 0.00 0.00 92 1010.0
20260505070659 53 102 1.0 2.0 0.00 0.00 0.00 91 1010.0
20260505070155 53 230 2.0 2.0 0.00 0.00 0.00 91 1010.2
20260505065651 53 203 1.0 2.0 0.00 0.00 0.00 91 1010.0
20260505065148 53 253 3.0 3.0 0.00 0.00 0.00 91 1010.2
20260505064645 53 278 3.0 3.0 0.00 0.00 0.00 91 1009.9
20260505064143 54 167 2.0 2.0 0.00 0.00 0.00 91 1010.2
20260505063640 54 109 2.0 3.0 0.00 0.00 0.00 91 1010.2
20260505063136 54 154 2.0 2.0 0.00 0.00 0.00 91 1010.4
20260505062633 54 217 2.0 2.0 0.00 0.00 0.00 91 1010.0
20260505062130 54 256 3.0 3.0 0.00 0.00 0.00 91 1010.3
20260505061627 54 197 1.0 2.0 0.00 0.00 0.00 90 1010.3
20260505061125 54 164 0.0 0.0 0.00 0.00 0.00 90 1010.4
20260505060622 54 154 0.0 2.0 0.00 0.00 0.00 90 1010.4
20260505060119 54 143 1.0 2.0 0.00 0.00 0.00 90 1010.4
20260505055614 54 275 2.0 3.0 0.00 0.00 0.00 90 1010.3
20260505055111 54 207 0.0 0.0 0.00 0.00 0.00 90 1010.4
20260505054608 54 245 2.0 3.0 0.00 0.00 0.00 89 1010.6
20260505054107 54 161 2.0 3.0 0.00 0.00 0.00 89 1010.4
20260505053603 54 267 3.0 3.0 0.00 0.00 0.00 89 1010.4
20260505053100 55 233 3.0 3.0 0.00 0.00 0.00 88 1010.7
20260505052556 55 272 2.0 3.0 0.00 0.00 0.00 88 1010.6
20260505052054 55 144 3.0 3.0 0.00 0.00 0.00 88 1010.5
20260505051551 55 305 3.0 3.0 0.00 0.00 0.00 87 1010.6
20260505051049 55 194 1.0 2.0 0.00 0.00 0.00 87 1010.8
20260505050547 55 144 1.0 2.0 0.00 0.00 0.00 87 1010.6
20260505041515 56 129 0.0 0.0 0.00 0.00 0.00 83 1010.9
20260505041012 56 89 0.0 0.0 0.00 0.00 0.00 83 1011.0
20260505040509 56 104 0.0 0.0 0.00 0.00 0.00 82 1011.0
20260505040007 56 88 0.0 2.0 0.00 0.00 0.00 82 1011.1
20260505035502 56 101 0.0 0.0 0.00 0.00 0.00 82 1010.9
20260505034959 56 134 0.0 0.0 0.00 0.00 0.00 81 1011.0
20260505034455 56 111 0.0 0.0 0.00 0.00 0.00 81 1010.9
20260505033953 56 246 2.0 3.0 0.00 0.00 0.00 81 1011.0
20260505033449 56 185 0.0 0.0 0.00 0.00 0.00 81 1010.9
20260505032948 56 196 0.0 2.0 0.00 0.00 0.00 81 1011.0
20260505032445 56 90 0.0 0.0 0.00 0.00 0.00 81 1011.1
20260505031941 56 270 2.0 2.0 0.00 0.00 0.00 81 1011.0
20260505031438 56 62 0.0 0.0 0.00 0.00 0.00 81 1011.0
20260505030935 57 85 0.0 0.0 0.00 0.00 0.00 81 1011.0
20260505030431 56 258 2.0 2.0 0.00 0.00 0.00 81 1011.1
20260505025926 56 168 0.0 0.0 0.00 0.00 0.00 82 1011.1
20260505025424 56 109 0.0 0.0 0.00 0.00 0.00 82 1011.2
20260505024923 56 20 0.0 2.0 0.00 0.00 0.00 82 1011.3
20260505024420 56 179 0.0 2.0 0.00 0.00 0.00 82 1011.1
20260505023917 56 47 0.0 2.0 0.00 0.00 0.00 82 1011.2
20260505023414 57 224 1.0 2.0 0.00 0.00 0.00 82 1011.3
20260505022911 57 204 2.0 3.0 0.00 0.00 0.00 81 1011.2
20260505022408 57 118 1.0 2.0 0.00 0.00 0.00 81 1011.1
20260505021905 57 117 0.0 2.0 0.00 0.00 0.00 81 1011.3
20260505021402 56 209 2.0 2.0 0.00 0.00 0.00 81 1011.3
20260505020857 56 79 0.0 0.0 0.00 0.00 0.00 81 1011.2
20260505020353 56 242 3.0 3.0 0.00 0.00 0.00 82 1011.3
20260505015850 56 245 2.0 3.0 0.00 0.00 0.00 82 1011.3
20260505015347 56 193 1.0 2.0 0.00 0.00 0.00 82 1011.1
20260505014845 57 178 1.0 2.0 0.00 0.00 0.00 82 1011.1
20260505014341 57 41 3.0 5.0 0.00 0.00 0.00 82 1011.3
20260505013838 57 103 1.0 2.0 0.00 0.00 0.00 81 1011.1
20260505013335 57 70 0.0 2.0 0.00 0.00 0.00 82 1011.2
20260505012834 57 101 1.0 2.0 0.00 0.00 0.00 82 1011.1
20260505012331 57 193 3.0 3.0 0.00 0.00 0.00 82 1011.0
20260505011827 57 140 2.0 3.0 0.00 0.00 0.00 82 1011.0
20260505011324 57 198 0.0 2.0 0.00 0.00 0.00 82 1010.9
20260505010820 57 94 1.0 2.0 0.00 0.00 0.00 81 1010.8
20260505010316 57 111 1.0 2.0 0.00 0.00 0.00 81 1010.8
20260505005812 57 119 2.0 2.0 0.00 0.00 0.00 80 1010.7
20260505005309 57 191 2.0 3.0 0.00 0.00 0.00 79 1010.6
20260505004807 58 186 3.0 3.0 0.00 0.00 0.00 78 1010.6
20260505004302 58 242 3.0 3.0 0.00 0.00 0.00 78 1010.4
20260505003800 57 318 2.0 3.0 0.00 0.00 0.00 79 1010.5
20260505003258 57 232 3.0 5.0 0.00 0.00 0.00 79 1010.6
20260505002754 57 196 4.0 5.0 0.00 0.00 0.00 80 1010.4
20260505002251 57 105 0.0 2.0 0.00 0.00 0.00 79 1010.2
20260505001749 57 297 2.0 3.0 0.00 0.00 0.00 79 1010.2
20260505001246 58 281 5.0 9.0 0.00 0.00 0.00 79 1010.2
20260505000743 58 27 3.0 5.0 0.00 0.00 0.00 78 1009.9
20260505000241 58 139 3.0 3.0 0.00 0.00 0.00 78 1009.9
20260504235737 58 179 3.0 3.0 0.00 0.00 0.00 77 1010.1
20260504235233 58 263 1.0 3.0 0.00 0.00 0.00 77 1009.8
20260504234731 58 108 1.0 2.0 0.00 0.00 0.00 77 1009.7
20260504234228 59 148 2.0 3.0 0.00 0.00 0.00 76 1009.5
20260504233724 59 65 2.0 3.0 0.00 0.00 0.00 75 1009.7
20260504233220 59 41 1.0 2.0 0.00 0.00 0.00 74 1009.7
20260504232717 60 113 3.0 5.0 0.00 0.00 0.00 72 1009.3
20260504232214 60 158 3.0 5.0 0.00 0.00 0.00 71 1009.4
20260504231711 60 203 4.0 5.0 0.00 0.00 0.00 71 1009.4
20260504231207 60 198 3.0 5.0 0.00 0.00 0.00 71 1009.4
20260504230703 60 234 2.0 2.0 0.00 0.00 0.00 71 1009.4
20260504230202 60 327 3.0 5.0 0.00 0.00 0.00 71 1009.3
20260504225701 60 245 3.0 3.0 0.00 0.00 0.00 71 1009.4
20260504225156 60 247 4.0 7.0 0.00 0.00 0.00 71 1009.1
20260504224653 60 29 3.0 5.0 0.00 0.00 0.00 70 1009.4
20260504224150 60 76 2.0 2.0 0.00 0.00 0.00 70 1009.2
20260504223647 60 229 6.0 9.0 0.00 0.00 0.00 69 1009.1
20260504223142 60 217 5.0 9.0 0.00 0.00 0.00 68 1009.3
20260504222640 60 206 3.0 3.0 0.00 0.00 0.00 69 1009.5
20260504222137 60 139 2.0 3.0 0.00 0.00 0.00 69 1009.2
20260504221634 60 67 1.0 2.0 0.00 0.00 0.00 70 1009.5
20260504221131 60 39 3.0 5.0 0.00 0.00 0.00 70 1009.8
20260504220627 60 255 4.0 5.0 0.00 0.00 0.00 69 1009.5
20260504220125 60 214 8.0 15.0 0.00 0.00 0.00 69 1009.7
20260504215621 60 222 5.0 7.0 0.00 0.00 0.00 69 1009.9
20260504215119 61 257 3.0 3.0 0.00 0.00 0.00 68 1009.8
20260504214614 61 203 2.0 3.0 0.00 0.00 0.00 68 1009.7
20260504214111 61 90 2.0 3.0 0.00 0.00 0.00 68 1010.0
20260504213608 62 283 3.0 5.0 0.00 0.00 0.00 66 1009.9
20260504213105 61 283 2.0 2.0 0.00 0.00 0.00 67 1009.9
20260504212600 61 139 3.0 3.0 0.00 0.00 0.00 67 1009.8
20260504212058 62 254 3.0 3.0 0.00 0.00 0.00 67 1009.9
20260504211555 62 10 3.0 5.0 0.00 0.00 0.00 65 1010.0
20260504211051 62 243 8.0 12.0 0.00 0.00 0.00 64 1010.0
20260504210549 63 251 3.0 3.0 0.00 0.00 0.00 64 1010.2
20260504210045 63 227 6.0 7.0 0.00 0.00 0.00 64 1010.1
20260504205543 63 77 3.0 3.0 0.00 0.00 0.00 63 1010.0
20260504205041 63 205 4.0 5.0 0.00 0.00 0.00 64 1009.7
20260504204538 64 276 4.0 5.0 0.00 0.00 0.00 62 1010.0
20260504204038 63 243 4.0 7.0 0.00 0.00 0.00 62 1009.9
20260504203535 64 68 5.0 7.0 0.00 0.00 0.00 63 1010.1
20260504203032 63 256 4.0 7.0 0.00 0.00 0.00 64 1009.8
20260504202528 64 205 3.0 3.0 0.00 0.00 0.00 62 1010.2
20260504202025 64 237 4.0 7.0 0.00 0.00 0.00 61 1010.0
20260504201522 64 318 4.0 7.0 0.00 0.00 0.00 61 1010.0
20260504201020 65 174 7.0 9.0 0.00 0.00 0.00 60 1009.9
20260504200516 65 38 1.0 2.0 0.00 0.00 0.00 59 1010.0
20260504200013 64 238 7.0 9.0 0.00 0.00 0.00 60 1010.1
20260504195509 65 233 4.0 5.0 0.00 0.00 0.00 59 1010.1
20260504195006 64 48 3.0 5.0 0.00 0.00 0.00 60 1010.0
20260504194502 65 228 6.0 9.0 0.00 0.00 0.00 60 1010.1
20260504193957 65 148 2.0 2.0 0.00 0.00 0.00 60 1010.2
20260504193455 66 249 6.0 7.0 0.00 0.00 0.00 57 1010.3
20260504192953 66 343 4.0 5.0 0.00 0.00 0.00 57 1010.3
20260504192450 67 275 2.0 3.0 0.00 0.00 0.00 57 1010.3
20260504191949 66 137 3.0 7.0 0.00 0.00 0.00 57 1010.4
20260504191447 66 335 2.0 3.0 0.00 0.00 0.00 57 1010.2
20260504190942 66 251 6.0 9.0 0.00 0.00 0.00 58 1010.5
20260504190438 65 142 5.0 5.0 0.00 0.00 0.00 58 1010.4
20260504185935 66 238 7.0 9.0 0.00 0.00 0.00 55 1010.8
20260504185432 68 311 2.0 3.0 0.00 0.00 0.00 53 1010.6
20260504184928 67 30 3.0 5.0 0.00 0.00 0.00 52 1010.4
20260504184424 68 134 2.0 3.0 0.00 0.00 0.00 52 1010.6
20260504183920 69 211 8.0 14.0 0.00 0.00 0.00 49 1010.8
20260504183417 71 242 7.0 10.0 0.00 0.00 0.00 44 1010.5
20260504182915 75 228 2.0 2.0 0.00 0.00 0.00 29 1010.4
20260504182412 74 130 1.0 2.0 0.00 0.00 0.00 30 1010.4
20260504181908 74 190 4.0 9.0 0.00 0.00 0.00 29 1010.3
20260504181406 75 235 5.0 5.0 0.00 0.00 0.00 30 1010.7
20260504180905 74 305 1.0 2.0 0.00 0.00 0.00 29 1010.7
20260504180403 74 270 4.0 5.0 0.00 0.00 0.00 29 1011.0
20260504175901 74 285 3.0 5.0 0.00 0.00 0.00 30 1011.0
20260504175357 74 110 1.0 2.0 0.00 0.00 0.00 30 1010.9
20260504174855 73 277 3.0 3.0 0.00 0.00 0.00 30 1011.2
20260504174352 74 84 1.0 2.0 0.00 0.00 0.00 30 1011.1
20260504173849 73 250 4.0 5.0 0.00 0.00 0.00 29 1011.0
20260504173346 73 15 0.0 0.0 0.00 0.00 0.00 29 1010.9
20260504172843 73 259 3.0 3.0 0.00 0.00 0.00 29 1011.0
20260504172340 74 150 4.0 5.0 0.00 0.00 0.00 29 1011.2
20260504171835 73 280 2.0 2.0 0.00 0.00 0.00 29 1011.3
20260504171333 74 132 3.0 3.0 0.00 0.00 0.00 29 1011.3
20260504170830 73 111 2.0 2.0 0.00 0.00 0.00 29 1011.4
20260504170327 73 301 2.0 3.0 0.00 0.00 0.00 29 1011.3
20260504160245 71 46 1.0 2.0 0.00 0.00 0.00 29 1012.2